RH
90 87 83 74 71 72 76 78 78 75 75 74 76 81 81 81 81 80 82 78 77 77
88 87 86 80 72 74 79 70 77 75 74 74 73 79 82 82 80 80 82 78 78 78
87 86 86 83 76 75 75 70 74 75 74 75 72 78 79 78 79 80 84 80 80 77
86 87 89 87 80 74 71 67 70 69 72 74 72 76 78 78 78 78 80 79 78 77
86 88 88 84 81 75 68 66 62 65 66 72 68 74 76 76 74 76 77 76 77 77
89 87 81 77 76 75 68 65 62 63 65 68 72 72 75 75 77 77 75 76 74 72
85 82 80 72 71 73 66 69 65 64 66 71 68 68 70 73 78 75 72 74 71 70
83 79 73 71 68 70 69 65 64 73 73 68 65 60 71 73 74 68 66 66 62 70
85 78 76 73 73 73 70 68 71 77 77 77 57 68 75 72 67 59 55 58 58 62
83 80 87 76 75 73 70 74 78 78 79 75 68 75 78 77 64 59 60 58 55 61
87 83 81 81 77 75 73 77 80 87 79 77 65 76 80 81 64 62 60 60 59 62
83 82 82 85 83 79 78 76 77 75 78 68 63 77 82 83 62 57 59 59 61 63
85 83 86 84 86 84 73 69 71 69 68 67 62 78 83 79 64 62 61 59 58 72
87 85 85 90 91 88 71 72 74 69 68 65 65 74 85 87 75 75 84 68 65 65
Wind_Speed
10 8 7 8 7 7 6 5 7 6 6 6 6 5 5 3 3 4 4 5 3 2
11 11 10 10 9 7 6 6 8 7 7 6 6 6 5 4 5 5 4 5 4 2
13 13 11 10 12 11 9 9 10 8 7 7 7 7 7 5 4 6 3 3 5 4
12 12 11 12 12 12 11 11 11 11 8 8 8 7 6 5 6 5 5 3 5 5
11 11 11 11 11 11 13 12 11 10 11 7 8 6 7 7 7 7 7 6 5 4
12 12 13 13 11 12 11 10 9 9 9 9 8 8 7 7 7 7 7 6 6 5
16 14 11 10 11 11 11 12 11 10 11 10 9 9 8 8 7 6 6 6 5 5
10 11 12 12 11 10 11 10 10 10 8 8 9 9 9 8 8 8 6 5 5 5
12 11 7 8 11 12 12 12 13 12 13 11 9 13 16 12 9 8 8 7 6 5
11 13 15 13 13 14 14 12 12 11 10 12 10 16 18 17 8 9 8 7 5 5
12 12 13 14 14 12 12 14 12 12 14 12 11 16 18 18 9 8 9 7 6 6
13 13 12 13 14 11 11 11 13 12 13 13 10 16 17 16 8 8 8 8 8 8
11 13 14 14 13 9 11 11 8 9 11 14 11 17 17 15 7 8 8 7 8 14
11 13 11 8 6 8 10 7 8 9 9 11 12 12 20 21 9 9 8 8 8 7
Wind_Direction
190 183 184 174 173 179 178 171 160 163 161 153 149 152 154 131 129 127 122 124 117 113
194 186 187 180 178 178 158 169 165 169 164 161 158 158 154 150 145 145 153 155 150 129
197 192 186 178 185 180 169 166 170 168 165 166 156 159 167 165 165 155 166 161 158 152
196 194 183 189 188 179 173 175 172 169 176 175 165 167 166 175 167 168 169 164 172 181
193 186 190 195 184 172 179 179 176 172 167 172 169 174 168 172 173 177 179 185 177 189
195 192 200 192 178 174 172 173 167 166 168 172 184 177 184 181 175 183 184 181 183 192
200 196 194 186 179 176 174 171 172 168 173 188 179 191 179 181 173 178 189 188 193 193
189 177 179 181 177 169 176 174 163 166 177 190 190 187 180 181 171 176 183 195 200 208
187 180 176 180 169 174 177 169 168 174 184 188 199 190 179 178 172 179 184 195 204 210
174 177 188 169 178 186 183 172 182 175 179 200 202 189 186 180 176 181 190 194 190 197
182 185 179 178 189 187 178 181 180 183 195 195 204 191 188 183 178 182 186 187 193 198
181 180 179 192 194 186 177 182 192 193 188 198 201 190 185 171 178 187 198 196 193 196
177 185 192 196 192 184 192 195 183 184 190 196 197 189 184 172 170 191 195 197 202 206
186 194 194 174 166 167 181 160 174 189 192 188 186 181 184 187 188 193 196 195 198 202